Date,TemperatureHighF,TemperatureAvgF,TemperatureLowF,DewpointHighF,DewpointAvgF,DewpointLowF,HumidityHigh,HumidityAvg,HumidityLow,PressureMaxIn,PressureMinIn,WindSpeedMaxMPH,WindSpeedAvgMPH,GustSpeedMaxMPH,PrecipitationSumIn
2013-1-1,30.3,14.3,5.3,19.0,10.2,2.0,92,84,63,30.66,30.48,8,1,12,0.00
2013-1-2,14.4,6.2,0.6,12.0,3.1,-3.0,91,87,82,30.67,30.61,1,0,3,0.00
2013-1-3,29.6,17.5,0.7,16.0,9.2,-3.0,91,71,51,30.61,30.41,9,2,14,0.00
2013-1-4,41.9,31.6,25.8,26.0,21.5,17.0,76,67,52,30.45,30.27,11,3,16,0.05
2013-1-5,31.6,27.0,20.4,26.0,20.1,14.0,93,76,56,30.28,30.21,8,2,14,0.00
2013-1-6,39.4,31.7,26.3,30.0,26.0,24.0,89,80,65,30.25,30.09,10,3,14,0.03
2013-1-7,45.0,37.8,30.8,36.0,30.3,24.0,89,75,61,30.15,30.03,15,5,19,0.04
2013-1-8,47.7,40.7,36.3,36.0,32.8,29.0,81,74,61,30.16,29.95,18,6,24,0.00
2013-1-9,44.2,34.7,22.0,31.0,26.9,18.0,91,74,56,29.94,29.69,19,7,31,0.01
2013-1-10,28.1,22.9,19.6,23.0,18.7,15.0,91,84,77,30.05,29.85,8,2,12,0.00
2013-1-11,24.2,18.7,14.1,17.0,10.0,-99.9,86,76,68,30.30,30.04,6,-29,9,0.00
2013-1-12,23.8,16.0,11.9,13.0,9.7,7.0,86,77,57,30.42,30.29,5,1,8,0.00
2013-1-13,25.2,16.8,10.0,14.0,9.1,5.0,86,72,56,30.51,30.40,3,1,5,0.00
2013-1-14,37.1,26.0,15.2,23.0,13.0,6.0,85,60,36,30.52,30.42,8,3,12,0.00
2013-1-15,52.6,38.3,25.5,30.0,21.3,16.0,81,54,31,30.61,30.51,7,2,12,0.01
2013-1-16,56.7,44.6,35.9,19.0,15.4,11.0,44,32,21,30.56,30.41,7,2,8,0.00
2013-1-17,52.5,44.3,39.5,17.0,14.4,11.0,37,30,23,30.41,30.28,13,4,14,0.00
2013-1-18,54.6,44.5,39.4,20.0,14.5,11.0,37,30,24,30.30,30.23,10,4,15,0.00
2013-1-19,58.9,46.8,39.1,16.0,12.4,8.0,38,26,15,30.30,30.23,14,3,14,0.00
2013-1-20,48.9,38.5,31.0,20.0,14.9,10.0,46,38,31,30.35,30.27,7,2,8,0.00
2013-1-21,52.1,41.5,33.7,21.0,11.4,8.0,48,30,21,30.29,30.13,11,4,16,0.00
2013-1-22,49.8,39.0,30.8,23.0,14.7,11.0,51,38,26,30.14,29.98,12,2,13,0.00
2013-1-23,47.1,40.2,34.3,34.0,21.6,13.0,91,51,34,30.07,29.81,16,4,25,0.03
2013-1-24,49.6,39.5,31.3,36.0,32.7,29.0,92,77,59,30.14,30.07,8,2,18,0.01
2013-1-25,40.8,39.2,35.9,38.0,36.2,33.0,95,89,76,30.11,29.87,10,3,17,0.22
2013-1-26,36.3,31.4,26.7,34.0,24.5,20.0,95,76,58,30.02,29.88,8,2,13,0.02
2013-1-27,33.6,27.9,25.5,25.0,22.4,20.0,91,80,60,30.11,30.01,11,2,17,0.00
2013-1-28,31.2,29.2,26.9,28.0,25.4,23.0,91,85,80,30.14,30.03,9,3,14,0.00
2013-1-29,38.4,33.6,30.6,32.0,29.1,27.0,88,84,76,30.39,30.11,11,3,16,0.11
2013-1-30,40.3,37.2,33.2,34.0,31.1,26.0,88,79,71,30.42,30.36,8,2,15,0.02
2013-1-31,44.3,38.1,32.3,35.0,32.1,30.0,91,79,61,30.37,30.27,5,1,7,0.00
2013-2-1,49.8,38.5,31.3,35.0,29.8,22.0,91,73,38,30.36,30.27,6,1,10,0.00
2013-2-2,48.5,38.8,30.4,31.0,26.2,21.0,73,61,48,30.39,30.24,8,2,14,0.00
2013-2-3,51.4,42.4,35.7,28.0,24.9,21.0,71,52,33,30.24,30.10,9,2,11,0.00
2013-2-4,50.3,43.3,37.9,25.0,22.3,18.0,55,44,28,30.12,29.87,6,1,13,0.00
2013-2-5,44.4,38.3,31.4,34.0,24.2,18.0,85,59,40,30.00,29.82,15,3,22,0.01
2013-2-6,41.9,35.3,30.0,26.0,24.1,23.0,79,65,50,30.10,29.88,14,4,17,0.00
2013-2-7,36.6,31.1,23.7,26.0,22.5,19.0,88,71,56,30.05,29.88,8,1,16,0.01
2013-2-8,35.5,26.6,20.0,23.0,19.6,16.0,90,76,54,30.22,30.06,7,1,12,0.00
2013-2-9,37.1,28.4,21.9,29.0,23.9,19.0,93,83,70,30.25,30.17,7,2,13,0.00
2013-2-10,41.3,32.6,25.7,28.0,24.7,21.0,94,74,48,30.31,30.23,4,1,9,0.00
2013-2-11,41.5,33.7,27.4,32.0,23.9,-99.9,86,70,54,30.32,30.20,9,-8,13,0.00
2013-2-12,44.0,36.0,31.3,33.0,28.5,26.0,85,74,60,30.42,30.33,8,1,13,0.00
2013-2-13,40.7,36.5,30.7,32.0,29.8,28.0,89,77,67,30.43,30.36,6,2,10,0.00
2013-2-14,47.3,37.6,29.6,37.0,32.2,27.0,91,81,65,30.52,30.43,8,2,10,0.00
2013-2-15,54.7,43.1,35.0,35.0,32.5,31.0,89,68,45,30.49,30.20,9,2,18,0.00
2013-2-16,47.9,38.8,27.5,34.0,28.0,23.0,85,66,49,30.20,30.05,13,3,20,0.00
2013-2-17,39.3,29.2,23.5,23.0,20.3,14.0,87,71,37,30.19,30.07,5,1,8,0.00
2013-2-18,38.6,32.0,27.1,24.0,18.3,15.0,69,58,41,30.07,29.73,7,1,9,0.00
2013-2-19,36.5,28.8,23.8,25.0,20.8,18.0,83,72,61,29.95,29.66,10,1,14,0.00
2013-2-20,35.9,29.5,24.7,24.0,22.1,19.0,88,75,52,30.05,29.95,8,1,13,0.00
2013-2-21,32.9,29.8,26.0,24.0,22.7,21.0,86,75,66,30.18,30.05,17,4,21,0.00
2013-2-22,38.9,32.7,25.5,32.0,26.3,21.0,92,77,68,30.16,29.86,17,5,30,0.01
2013-2-23,33.6,26.9,22.3,24.0,20.2,17.0,90,76,59,30.39,29.98,14,3,18,0.00
2013-2-24,43.2,31.2,22.0,26.0,21.5,18.0,87,69,48,30.41,30.08,10,2,17,0.00
2013-2-25,36.4,30.8,24.2,29.0,23.3,19.0,91,74,57,30.30,30.00,16,5,25,0.00
2013-2-26,42.8,31.6,21.3,21.0,17.0,12.0,89,59,31,30.38,30.26,7,2,14,0.00
2013-2-27,43.8,37.6,32.0,31.0,22.4,16.0,77,55,43,30.30,30.23,8,2,14,0.00
2013-2-28,49.4,42.8,37.9,39.0,34.6,26.0,83,73,60,30.42,30.21,13,4,19,0.00
2013-3-1,58.4,46.7,38.5,36.0,33.8,31.0,84,63,36,30.44,30.23,9,2,16,0.00
2013-3-2,52.2,45.8,36.0,36.0,33.0,26.0,84,62,37,30.23,30.01,8,3,16,0.01
2013-3-3,39.3,30.5,23.5,32.0,17.5,6.0,89,62,25,30.21,30.01,10,3,13,0.00
2013-3-4,48.0,33.7,21.9,21.0,15.6,11.0,70,50,31,30.23,29.95,11,2,18,0.00
2013-3-5,43.9,35.8,28.7,30.0,26.1,19.0,90,68,53,29.94,29.64,11,2,18,0.01
2013-3-6,37.2,32.8,28.5,32.0,28.3,22.0,92,83,72,29.95,29.48,12,4,24,0.18
2013-3-7,43.2,32.0,24.5,29.0,22.9,19.0,85,70,43,30.05,29.95,8,1,10,0.00
2013-3-8,43.7,32.9,26.7,31.0,23.2,14.0,88,69,46,30.19,29.98,7,1,11,0.01
2013-3-9,49.3,38.3,29.8,24.0,18.5,14.0,72,47,27,30.45,30.19,7,1,12,0.00
2013-3-10,53.0,41.8,32.7,36.0,25.6,16.0,81,55,26,30.45,30.31,12,3,17,0.00
2013-3-11,48.6,43.0,38.9,39.0,37.4,35.0,87,81,70,30.32,30.19,6,1,12,0.00
2013-3-12,57.1,46.2,38.3,39.0,33.5,25.0,90,65,34,30.19,30.07,7,2,13,0.00
2013-3-13,62.4,52.0,44.6,36.0,31.2,24.0,67,46,30,30.13,30.03,12,2,14,0.00
2013-3-14,61.9,52.1,44.4,33.0,29.5,22.0,65,43,29,30.07,29.94,9,3,15,0.00
2013-3-15,53.4,45.0,40.0,37.0,34.2,28.0,85,68,39,30.11,30.07,7,2,11,0.00
2013-3-16,46.5,37.9,27.8,33.0,29.5,24.0,93,73,46,30.08,29.89,18,4,23,0.00
2013-3-17,36.5,28.5,22.9,24.0,19.8,15.0,88,70,52,30.22,29.97,14,4,18,0.00
2013-3-18,46.9,34.2,25.9,24.0,20.5,13.0,83,61,29,30.25,30.15,9,2,12,0.00
2013-3-19,50.1,37.7,29.2,39.0,23.2,14.0,89,58,33,30.16,29.73,11,2,16,0.11
2013-3-20,46.0,38.8,26.7,39.0,31.7,21.0,93,76,58,30.01,29.56,26,10,33,0.09
2013-3-21,35.5,28.2,23.4,23.0,19.1,16.0,84,69,54,30.23,30.02,20,6,24,0.00
2013-3-22,33.3,26.0,19.4,21.0,18.0,13.0,92,74,45,30.36,30.22,9,3,19,0.00
2013-3-23,40.0,29.3,20.8,22.0,19.0,15.0,90,68,40,30.37,30.25,8,1,11,0.01
2013-3-24,42.5,33.5,25.0,27.0,22.0,18.0,77,64,45,30.27,30.11,6,1,9,0.00
2013-3-25,48.0,38.1,28.3,32.0,27.2,24.0,83,66,44,30.12,29.90,6,1,10,0.00
2013-3-26,47.6,38.4,31.7,39.0,33.6,27.0,93,83,71,29.95,29.90,7,1,9,0.07
2013-3-27,52.6,42.0,33.2,43.0,36.6,32.0,96,82,51,29.95,29.86,10,2,16,0.07
2013-3-28,53.4,43.8,37.3,42.0,38.7,36.0,96,84,57,30.06,29.94,7,1,10,0.03
2013-3-29,57.2,47.0,39.5,43.0,40.0,38.0,96,78,53,30.15,30.07,7,1,11,0.04
2013-3-30,65.4,52.0,40.0,45.0,39.8,36.0,86,65,38,30.15,29.96,6,2,15,0.00
2013-3-31,63.8,50.6,40.9,43.0,38.4,34.0,86,65,38,29.97,29.79,9,2,21,0.00
2013-4-1,59.9,47.3,39.2,44.0,38.6,32.0,93,73,47,30.05,29.86,9,2,16,0.00
2013-4-2,60.1,47.0,37.4,41.0,37.6,35.0,93,72,41,30.10,30.02,7,2,15,0.00
2013-4-3,63.5,50.2,38.9,39.0,34.4,25.0,88,59,25,30.08,29.88,7,1,14,0.00
2013-4-4,58.0,48.8,38.5,43.0,37.7,33.0,90,67,46,29.87,29.61,20,4,29,0.21
2013-4-5,51.6,43.7,38.4,39.0,35.6,32.0,86,74,49,29.90,29.79,13,5,23,0.05
2013-4-6,47.1,40.7,36.6,36.0,34.4,32.0,91,79,60,29.93,29.79,14,5,21,0.14
2013-4-7,41.2,37.0,28.5,36.0,28.8,24.0,89,73,55,29.82,29.60,26,8,31,0.08
2013-4-8,41.7,34.0,26.8,32.0,26.5,22.0,89,74,63,30.25,29.82,11,4,17,0.00
2013-4-9,52.7,40.3,29.1,33.0,28.7,24.0,91,67,33,30.33,30.25,5,1,11,0.00
2013-4-10,56.1,45.8,34.9,42.0,33.7,25.0,76,64,39,30.25,30.03,17,6,26,0.00
2013-4-11,46.5,35.8,28.0,29.0,26.4,24.0,87,70,48,30.20,30.11,8,2,17,0.00
2013-4-12,55.3,42.0,29.3,33.0,26.3,18.0,84,59,25,30.12,29.74,12,4,22,0.00
2013-4-13,40.3,35.0,28.7,31.0,21.3,16.0,73,59,40,30.01,29.73,18,8,29,0.00
2013-4-14,39.7,31.4,25.7,26.0,21.5,17.0,85,68,41,30.02,29.86,8,2,15,0.00
2013-4-15,37.1,29.5,25.0,30.0,26.2,22.0,95,87,64,30.12,29.87,11,2,14,0.04
2013-4-16,39.4,30.9,26.1,27.0,23.7,17.0,95,76,51,30.39,30.12,12,3,16,0.09
2013-4-17,45.9,34.7,25.4,26.0,20.8,15.0,84,59,32,30.47,30.39,9,2,14,0.00
2013-4-18,53.9,42.3,32.6,38.0,32.4,26.0,80,69,53,30.41,30.26,9,2,13,0.00
2013-4-19,51.6,44.1,36.4,39.0,36.5,32.0,89,76,53,30.26,30.06,27,6,28,0.08
2013-4-20,53.8,42.6,35.3,35.0,32.2,30.0,86,69,42,30.22,30.14,13,3,15,0.00
2013-4-21,53.2,43.5,35.1,38.0,32.9,28.0,82,67,49,30.17,30.08,10,3,16,0.00
2013-4-22,49.3,39.0,29.9,31.0,23.5,15.0,91,58,27,30.39,30.18,8,2,14,0.00
2013-4-23,57.3,41.7,29.8,20.0,12.8,0.0,57,35,11,30.37,30.11,10,2,16,0.00
2013-4-24,64.8,48.4,33.7,26.0,19.3,14.0,53,34,15,30.25,29.97,7,2,15,0.00
2013-4-25,65.8,54.8,44.6,36.0,27.8,19.0,53,36,29,30.04,29.92,11,3,17,0.00
2013-4-26,70.9,58.9,47.8,35.0,31.6,24.0,58,38,18,30.13,30.04,8,2,17,0.00
2013-4-27,65.6,56.5,48.7,33.0,28.5,23.0,51,36,20,30.13,30.02,15,5,24,0.00
2013-4-28,57.7,48.5,41.0,37.0,30.4,26.0,70,51,31,30.09,29.99,10,3,18,0.00
2013-4-29,50.9,44.8,29.6,38.0,29.7,21.0,77,57,33,30.00,29.89,19,6,26,0.00
2013-4-30,43.4,33.1,23.4,23.0,20.2,17.0,80,61,37,30.40,29.99,10,4,21,0.00
2013-5-1,58.0,42.8,26.7,26.0,20.2,17.0,76,45,21,30.53,30.41,7,2,12,0.00
2013-5-2,71.9,55.3,40.1,26.0,18.3,9.0,45,26,9,30.50,30.17,9,2,16,0.00
2013-5-3,67.0,56.8,46.6,34.0,27.7,19.0,42,33,26,30.18,30.04,12,2,16,0.00
2013-5-4,65.5,55.3,44.1,35.0,30.5,27.0,58,40,27,30.06,29.85,14,4,23,0.00
2013-5-5,71.1,59.3,46.9,36.0,32.1,28.0,50,37,27,29.84,29.65,12,3,17,0.00
2013-5-6,76.3,62.7,49.9,40.0,33.0,28.0,53,35,21,29.73,29.61,12,2,18,0.00
2013-5-7,74.6,61.9,52.4,44.0,40.3,35.0,68,48,25,29.82,29.68,11,3,21,0.00
2013-5-8,77.4,61.5,51.1,49.0,41.7,34.0,74,51,22,29.94,29.82,9,2,15,0.02
2013-5-9,79.0,63.7,50.4,48.0,43.2,36.0,79,51,22,30.00,29.91,14,2,21,0.00
2013-5-10,81.4,67.8,55.6,47.0,41.9,36.0,63,42,22,30.04,29.95,11,2,20,0.00
2013-5-11,82.7,69.9,56.7,50.0,45.9,43.0,64,44,25,30.03,29.85,8,2,15,0.00
2013-5-12,77.3,67.0,56.3,50.0,46.0,42.0,70,49,30,29.90,29.81,11,3,16,0.00
2013-5-13,60.5,53.0,40.9,47.0,41.3,33.0,82,66,44,30.05,29.84,16,4,27,0.01
2013-5-14,61.4,49.4,36.6,35.0,32.6,31.0,83,55,32,30.07,29.97,8,2,12,0.00
2013-5-15,58.8,48.1,40.7,43.0,35.0,29.0,84,62,37,30.00,29.89,7,2,11,0.02
2013-5-16,58.2,47.2,40.1,44.0,39.3,36.0,95,76,47,29.94,29.79,5,1,11,0.29
2013-5-17,52.5,44.7,39.6,42.0,38.3,34.0,95,79,52,30.01,29.86,9,2,17,0.01
2013-5-18,51.7,44.5,38.5,42.0,37.2,34.0,90,77,59,30.20,30.02,11,2,14,0.04
2013-5-19,58.3,46.4,36.7,40.0,36.4,34.0,91,70,42,30.29,30.19,10,2,18,0.00
2013-5-20,72.4,54.8,38.1,41.0,34.7,25.0,86,52,20,30.24,29.78,9,2,15,0.00
2013-5-21,51.8,43.2,30.1,41.0,32.9,24.0,90,68,37,29.84,29.59,18,4,25,0.13
2013-5-22,40.0,34.1,28.3,32.0,27.7,22.0,90,77,69,29.97,29.84,8,3,15,0.04
2013-5-23,51.6,41.0,29.9,34.0,29.1,24.0,88,66,34,29.98,29.92,9,2,14,0.03
2013-5-24,53.8,43.0,34.7,34.0,31.6,27.0,91,66,38,29.99,29.91,9,3,19,0.00
2013-5-25,59.6,47.1,34.7,41.0,33.6,31.0,89,63,37,29.98,29.87,11,2,13,0.00
2013-5-26,57.0,48.2,43.2,43.0,39.5,35.0,95,74,45,29.96,29.86,11,3,17,0.09
2013-5-27,54.8,45.3,40.9,48.0,40.9,36.0,92,85,70,29.93,29.71,15,3,19,0.45
2013-5-28,58.4,48.6,39.9,41.0,37.2,34.0,89,67,42,29.85,29.68,10,3,18,0.01
2013-5-29,52.4,46.5,40.7,42.0,38.4,35.0,93,74,52,29.93,29.59,19,6,28,0.08
2013-5-30,57.6,44.9,34.7,36.0,32.8,30.0,83,65,39,30.15,29.93,10,2,18,0.00
2013-5-31,65.8,51.0,36.2,38.0,32.9,27.0,86,55,26,30.23,30.13,9,2,12,0.00
2013-6-1,70.6,57.8,43.7,45.0,37.4,28.0,76,49,29,30.15,29.88,8,2,16,0.00
2013-6-2,64.8,53.6,45.6,44.0,39.2,32.0,88,62,30,29.94,29.84,10,3,18,0.00
2013-6-3,71.9,56.4,41.3,41.0,35.0,24.0,87,51,18,29.97,29.89,6,2,14,0.00
2013-6-4,74.9,61.8,47.3,42.0,37.2,28.0,65,42,25,29.97,29.89,9,2,17,0.00
2013-6-5,81.6,68.5,56.7,45.0,39.7,35.0,52,37,22,29.93,29.79,6,2,13,0.00
2013-6-6,82.6,68.1,57.3,48.0,41.6,31.0,59,41,16,29.86,29.77,8,2,15,0.00
2013-6-7,79.0,65.9,56.1,50.0,42.9,38.0,59,44,32,29.91,29.82,9,3,20,0.00
2013-6-8,81.0,66.1,52.7,43.0,36.3,22.0,62,37,13,29.93,29.86,11,2,17,0.00
2013-6-9,76.9,62.8,48.8,46.0,35.5,23.0,74,41,17,29.86,29.72,13,2,17,0.00
2013-6-10,73.6,57.8,44.7,39.0,28.3,21.0,69,36,14,29.77,29.64,10,2,15,0.00
2013-6-11,59.8,48.5,39.0,37.0,34.5,31.0,85,61,38,30.02,29.74,11,3,17,0.00
2013-6-12,59.3,47.1,36.5,36.0,33.9,31.0,87,63,35,30.06,30.00,9,3,17,0.00
2013-6-13,52.5,44.3,37.9,40.0,36.0,34.0,85,73,57,30.20,30.06,13,2,18,0.05
2013-6-14,70.1,53.1,36.7,38.0,32.9,17.0,90,54,14,30.21,29.92,11,2,12,0.00
2013-6-15,77.7,63.4,47.4,46.0,33.4,27.0,67,36,17,29.91,29.73,11,2,16,0.00
2013-6-16,75.7,61.9,51.8,51.0,44.6,39.0,77,56,28,29.93,29.80,9,2,17,0.00
2013-6-17,74.1,60.0,49.7,48.0,44.0,41.0,76,58,34,29.94,29.74,11,3,16,0.00
2013-6-18,57.2,49.5,41.7,47.0,43.6,39.0,93,80,63,29.84,29.75,8,2,18,0.52
2013-6-19,54.5,45.7,39.8,43.0,38.2,35.0,94,76,52,30.01,29.82,9,2,15,0.10
2013-6-20,58.2,47.6,39.1,40.0,35.0,32.0,82,64,40,30.05,29.96,10,3,13,0.00
2013-6-21,55.5,48.2,42.5,42.0,39.6,38.0,91,73,56,30.07,30.02,12,2,13,0.01
2013-6-22,72.8,58.0,43.7,43.0,39.3,35.0,79,53,26,30.07,29.78,8,2,12,0.00
2013-6-23,60.9,56.5,51.3,54.0,47.6,40.0,96,73,54,29.78,29.53,5,1,9,0.24
2013-6-24,57.9,51.4,45.4,51.0,47.3,43.0,96,86,65,29.65,29.53,6,1,11,0.17
2013-6-25,60.3,53.3,49.1,51.0,47.7,45.0,93,81,60,29.81,29.63,10,2,16,0.15
2013-6-26,63.6,56.7,50.9,55.0,49.9,46.0,88,78,65,29.98,29.81,8,2,13,0.03
2013-6-27,79.9,65.3,51.9,56.0,52.6,49.0,93,66,41,30.03,29.95,11,2,14,0.00
2013-6-28,86.7,71.4,56.0,60.0,54.8,52.0,90,60,31,30.04,29.85,8,2,12,0.00
2013-6-29,85.2,71.5,60.1,59.0,54.7,-99.9,85,59,36,29.91,29.79,8,-8,20,0.00
2013-6-30,92.0,76.5,61.5,58.0,54.4,49.0,72,48,30,29.85,29.67,13,2,17,0.00
2013-7-1,93.1,79.2,65.1,62.0,56.8,51.0,70,49,24,29.80,29.71,8,2,11,0.00
2013-7-2,94.3,80.8,68.1,63.0,57.1,46.0,72,48,20,29.82,29.74,8,2,22,0.00
2013-7-3,85.6,73.9,61.2,56.0,46.9,21.0,71,42,16,29.84,29.75,12,3,17,0.00
2013-7-4,76.8,65.6,53.9,39.0,34.9,28.0,56,33,20,29.84,29.75,9,3,18,0.00
2013-7-5,72.6,58.7,46.3,40.0,36.1,28.0,75,46,19,29.82,29.76,10,3,17,0.00
2013-7-6,80.3,61.1,47.2,39.0,35.1,23.0,68,43,12,29.81,29.68,10,2,14,0.00
2013-7-7,82.5,67.8,55.5,48.0,39.9,34.0,55,38,21,29.75,29.63,13,2,18,0.00
2013-7-8,83.0,66.7,53.9,42.0,34.9,28.0,60,34,15,29.89,29.76,6,1,10,0.00
2013-7-9,89.8,74.1,58.1,47.0,40.2,36.0,47,32,17,29.92,29.77,8,2,15,0.00
2013-7-10,86.2,72.3,61.0,49.0,44.8,41.0,59,40,22,29.84,29.65,10,2,17,0.00
2013-7-11,77.1,64.3,54.1,40.0,34.6,19.0,57,35,17,29.79,29.70,12,2,16,0.00
2013-7-12,73.4,59.7,48.6,38.0,26.2,13.0,61,30,15,29.92,29.77,11,2,22,0.00
2013-7-13,76.5,60.5,44.8,38.0,32.4,20.0,69,40,13,30.01,29.91,11,2,14,0.01
2013-7-14,84.3,69.6,53.1,41.0,33.7,29.0,43,28,16,29.98,29.78,10,2,16,0.00
2013-7-15,85.2,70.1,58.0,40.0,31.1,18.0,45,25,15,29.82,29.65,12,2,15,0.00
2013-7-16,82.2,68.2,56.6,41.0,36.9,33.0,43,33,22,29.79,29.66,11,2,15,0.00
2013-7-17,85.2,72.3,61.3,46.0,36.6,30.0,53,30,15,29.93,29.79,9,3,19,0.00
2013-7-18,88.2,73.2,58.2,44.0,36.0,25.0,51,29,12,29.96,29.83,11,2,15,0.00
2013-7-19,90.4,75.5,62.3,34.0,28.2,23.0,30,19,9,29.90,29.75,10,2,19,0.00
2013-7-20,89.7,75.8,63.7,29.0,16.1,3.0,26,12,4,29.80,29.68,10,2,14,0.00
2013-7-21,89.9,74.7,62.1,36.0,18.4,0.0,33,14,4,29.73,29.65,9,2,16,0.00
2013-7-22,89.7,73.7,59.8,40.0,31.4,-99.9,42,24,10,29.79,29.71,9,-9,15,0.00
2013-7-23,92.3,77.4,65.1,41.0,22.9,4.0,30,15,8,29.82,29.71,7,2,14,0.00
2013-7-24,90.0,75.3,63.6,44.0,24.6,11.0,40,17,6,29.83,29.76,7,2,12,0.00
2013-7-25,92.3,76.9,63.4,42.0,31.7,13.0,42,23,8,29.86,29.79,11,2,18,0.00
2013-7-26,90.8,77.4,65.0,36.0,19.4,8.0,32,13,5,29.89,29.80,10,2,17,0.00
2013-7-27,81.0,68.4,56.6,34.0,27.3,15.0,37,23,10,29.89,29.76,9,3,15,0.00
2013-7-28,77.6,64.1,54.0,35.0,29.3,21.0,44,28,18,29.80,29.73,8,2,16,0.00
2013-7-29,79.3,66.5,54.7,43.0,34.1,28.0,52,32,16,29.83,29.72,8,2,14,0.00
2013-7-30,83.9,67.1,53.8,43.0,33.0,13.0,59,33,8,29.94,29.83,7,2,13,0.00
2013-7-31,76.5,66.3,57.8,48.0,37.5,30.0,62,37,21,29.93,29.80,10,2,24,0.01
2013-8-1,72.4,60.3,49.7,50.0,44.8,39.0,77,59,34,29.91,29.80,9,2,17,0.00
2013-8-2,73.7,57.4,44.5,53.0,43.6,38.0,89,64,28,29.98,29.91,16,2,16,0.07
2013-8-3,79.5,65.2,49.6,46.0,39.6,31.0,75,45,17,29.97,29.85,8,2,15,0.00
2013-8-4,84.7,70.4,55.9,47.0,43.3,37.0,64,41,19,29.88,29.74,8,2,14,0.00
2013-8-5,84.4,72.6,61.3,50.0,45.5,39.0,60,40,20,29.81,29.72,9,2,12,0.00
2013-8-6,87.8,73.4,59.6,47.0,41.2,29.0,57,35,14,29.82,29.71,10,2,16,0.00
2013-8-7,83.7,71.2,61.1,47.0,35.4,28.0,47,29,15,29.84,29.74,8,2,15,0.00
2013-8-8,81.4,70.3,58.0,47.0,42.7,40.0,53,39,24,29.82,29.70,6,1,12,0.00
2013-8-9,81.3,66.6,56.3,55.0,46.8,41.0,82,52,24,29.78,29.64,17,2,27,0.22
2013-8-10,77.0,60.6,52.9,54.0,49.0,43.0,85,68,30,29.91,29.77,9,1,14,0.00
2013-8-11,74.5,63.2,52.3,48.0,45.2,41.0,79,55,33,29.93,29.82,10,2,14,0.00
2013-8-12,80.1,66.2,53.2,49.0,46.4,42.0,76,52,29,29.88,29.80,9,1,13,0.00
2013-8-13,84.7,69.4,55.5,51.0,45.2,35.0,74,46,22,29.91,29.78,8,1,14,0.00
2013-8-14,85.4,71.4,60.8,48.0,41.7,34.0,58,36,22,29.83,29.70,10,2,14,0.00
2013-8-15,84.7,69.3,56.5,52.0,47.7,43.0,68,49,24,29.80,29.71,11,2,15,0.00
2013-8-16,82.3,68.3,58.7,57.0,52.5,47.0,80,59,31,29.87,29.78,14,2,17,0.00
2013-8-17,80.5,67.2,56.7,56.0,52.4,49.0,89,62,35,29.91,29.81,12,2,25,0.00
2013-8-18,83.7,68.5,55.6,51.0,46.7,41.0,76,50,24,29.95,29.85,10,2,14,0.00
2013-8-19,84.6,69.8,58.0,49.0,44.5,40.0,62,42,24,29.92,29.80,10,2,16,0.00
2013-8-20,82.2,66.7,52.2,47.0,31.4,19.0,78,35,11,29.92,29.82,10,2,15,0.00
2013-8-21,84.3,69.4,58.9,38.0,31.2,21.0,42,25,14,29.88,29.76,8,1,15,0.00
2013-8-22,80.0,67.6,59.9,52.0,42.5,34.0,69,42,25,29.81,29.71,11,1,19,0.00
2013-8-23,78.1,67.9,54.3,50.0,47.0,42.0,77,50,28,29.98,29.67,11,5,15,0.00
2013-8-24,75.4,60.8,47.7,54.7,47.9,42.6,92,66,32,29.97,29.64,17,3,22,0.18
2013-8-25,75.1,58.2,49.7,55.3,50.5,-99.9,94,79,40,29.98,29.71,14,-3,30,0.12
2013-8-26,72.4,60.7,50.0,49.0,47.0,44.0,88,63,38,29.86,29.82,9,2,17,0.00
2013-8-27,80.8,64.9,51.6,51.0,45.7,40.0,77,53,25,29.85,29.63,8,1,14,0.00
2013-8-28,83.4,66.8,53.5,53.0,48.1,39.0,88,57,21,29.74,29.66,9,1,18,0.00
2013-8-29,78.8,65.9,56.7,53.0,49.6,45.0,80,58,31,29.93,29.72,12,2,22,0.00
2013-8-30,78.2,64.9,56.2,52.0,48.8,45.0,78,59,34,29.99,29.87,5,0,11,0.00
2013-8-31,83.3,67.6,51.9,52.0,48.9,44.0,84,55,27,29.91,29.71,8,1,12,0.00
2013-9-1,89.8,71.7,57.7,51.0,41.9,25.0,71,40,10,29.72,29.56,9,2,18,0.00
2013-9-2,79.5,64.7,53.1,52.0,49.3,44.0,84,61,30,29.76,29.62,8,1,13,0.00
2013-9-3,80.0,63.1,50.8,52.0,47.3,38.0,91,62,22,29.85,29.76,11,2,18,0.00
2013-9-4,81.6,63.9,52.5,51.0,47.2,39.0,86,60,22,29.86,29.77,9,2,14,0.00
2013-9-5,71.0,57.2,49.3,52.0,46.6,41.0,88,70,36,29.95,29.72,9,2,18,0.00
2013-9-6,64.7,54.0,47.9,48.0,45.3,42.0,88,74,53,30.05,29.93,9,2,13,0.04
2013-9-7,75.2,60.1,46.4,50.0,46.1,44.0,90,64,33,30.03,29.87,9,1,13,0.00
2013-9-8,73.7,62.2,51.2,50.0,46.8,42.0,83,59,37,29.94,29.89,13,1,13,0.00
2013-9-9,80.4,67.8,55.4,47.0,43.1,40.0,64,43,25,29.93,29.79,9,1,15,0.00
2013-9-10,85.5,70.9,60.5,47.0,43.0,37.0,53,38,18,29.82,29.72,11,0,18,0.00
2013-9-11,85.7,71.7,59.3,50.0,44.9,42.0,56,40,23,29.86,29.77,10,1,15,0.00
2013-9-12,87.7,73.8,62.9,50.0,45.7,43.0,54,38,21,29.83,29.70,7,1,17,0.00
2013-9-13,83.8,72.5,64.7,46.0,44.1,40.0,48,37,22,29.75,29.60,8,2,12,0.00
2013-9-14,85.4,72.8,62.1,50.0,45.2,41.0,52,38,24,29.67,29.55,5,0,12,0.00
2013-9-15,86.1,70.9,51.8,50.0,46.2,31.0,76,45,14,29.64,29.41,12,2,25,0.00
2013-9-16,66.6,56.0,47.5,46.0,43.8,41.0,83,65,42,29.78,29.64,8,1,14,0.00
2013-9-17,58.5,48.4,43.4,46.0,42.8,39.0,91,81,54,29.91,29.70,7,1,12,0.29
2013-9-18,60.9,50.1,42.5,41.0,37.4,34.0,86,64,37,30.03,29.91,8,1,9,0.00
2013-9-19,76.5,59.1,45.9,37.0,32.7,26.0,61,41,18,29.98,29.71,12,2,16,0.00
2013-9-20,73.7,59.3,48.7,46.0,32.9,24.0,87,41,16,29.71,29.45,9,3,18,0.03
2013-9-21,61.3,50.3,44.5,47.0,40.9,37.0,92,72,44,29.68,29.52,14,2,18,0.09
2013-9-22,56.6,47.6,42.5,48.0,40.7,36.0,90,77,55,29.82,29.66,16,4,24,0.17
2013-9-23,57.4,49.3,43.6,43.0,39.9,36.0,80,71,56,29.92,29.80,10,2,16,0.00
2013-9-24,47.8,43.5,38.7,43.0,39.9,35.0,95,87,74,29.89,29.77,8,1,14,0.41
2013-9-25,46.2,39.8,36.3,39.0,35.7,34.0,94,85,70,29.96,29.76,6,2,15,0.03
2013-9-26,51.2,41.4,35.9,40.0,35.6,33.0,90,80,58,30.13,29.95,9,2,15,0.02
2013-9-27,54.6,43.7,34.6,44.0,36.7,30.0,91,78,43,30.13,29.97,11,2,17,0.22
2013-9-28,58.9,52.2,43.2,48.0,44.2,41.0,93,76,52,29.96,29.50,23,9,43,0.36
2013-9-29,49.9,44.2,39.7,46.0,39.4,35.0,93,83,67,29.66,29.45,19,8,33,0.55
2013-9-30,48.6,42.5,35.9,46.0,34.3,31.0,90,73,57,29.97,29.53,17,5,28,0.02
2013-10-1,46.7,39.3,33.2,37.0,32.8,30.0,90,78,57,30.17,29.96,14,3,22,0.00
2013-10-2,44.6,37.4,31.1,35.0,31.2,28.0,93,79,57,30.16,30.02,8,2,12,0.08
2013-10-3,47.3,37.6,31.6,36.0,32.4,30.0,95,82,58,30.41,30.11,7,1,9,0.10
2013-10-4,54.1,43.9,34.3,39.0,33.4,30.0,83,67,54,30.48,30.36,6,0,11,0.00
2013-10-5,70.6,54.5,41.6,37.0,26.3,23.0,68,36,18,30.37,30.13,10,2,17,0.00
2013-10-6,71.2,58.1,48.7,35.0,26.8,21.0,44,31,18,30.13,29.87,14,2,16,0.00
2013-10-7,51.8,46.3,37.4,38.0,31.5,22.0,81,59,33,30.01,29.82,13,4,19,0.00
2013-10-8,43.0,38.0,32.2,36.0,32.2,29.0,93,80,67,30.03,29.91,7,2,12,0.03
2013-10-9,41.6,36.2,31.4,35.0,32.5,29.0,95,86,73,30.03,29.95,8,1,10,0.02
2013-10-10,51.1,41.5,35.2,36.0,31.5,-99.9,88,71,49,30.01,29.90,9,-9,15,0.00
2013-10-11,50.3,41.6,34.9,38.0,34.5,31.0,90,77,51,30.06,29.99,6,1,10,0.00
2013-10-12,42.5,37.7,34.5,36.0,33.8,32.0,94,86,72,30.12,29.98,9,1,10,0.00
2013-10-13,47.4,40.1,36.8,38.0,35.4,30.0,95,84,60,30.29,30.11,5,1,10,0.00
2013-10-14,52.9,42.2,34.6,36.0,29.8,24.0,81,63,43,30.36,30.28,8,1,12,0.00
2013-10-15,58.6,43.2,30.9,32.0,27.3,24.0,80,56,31,30.36,30.13,7,1,13,0.00
2013-10-16,58.4,48.6,41.6,35.0,28.7,24.0,67,47,34,30.13,30.02,7,2,11,0.00
2013-10-17,56.9,46.0,38.5,37.0,33.4,31.0,74,62,43,30.19,30.11,6,1,11,0.00
2013-10-18,60.2,47.5,36.1,40.0,34.8,31.0,83,63,41,30.22,30.11,5,1,10,0.00
2013-10-19,70.6,57.1,44.1,33.0,27.6,18.0,66,35,14,30.12,30.00,9,2,14,0.00
2013-10-20,65.4,55.5,47.2,38.0,32.6,28.0,54,42,34,30.05,30.00,5,1,8,0.00
2013-10-21,65.9,55.9,48.0,41.0,36.8,33.0,59,49,38,30.07,30.00,5,1,8,0.00
2013-10-22,67.1,55.2,48.4,43.0,37.0,33.0,65,51,37,30.06,29.95,3,0,8,0.00
2013-10-23,64.3,52.9,45.3,43.0,38.9,34.0,74,60,44,30.00,29.93,5,1,8,0.00
2013-10-24,65.4,52.8,43.6,45.0,40.7,37.0,81,65,42,30.03,29.95,4,1,9,0.00
2013-10-25,65.8,55.0,46.8,40.0,36.6,29.0,72,52,32,30.14,30.03,6,1,11,0.00
2013-10-26,64.7,52.5,41.6,41.0,36.2,31.0,81,56,31,30.15,29.99,7,1,13,0.00
2013-10-27,46.2,39.6,35.5,39.0,35.8,31.0,96,87,60,30.01,29.64,10,3,18,0.27
2013-10-28,37.9,30.7,26.6,37.0,25.9,21.0,96,83,68,29.95,29.70,18,5,22,0.00
2013-10-29,41.7,32.4,24.0,25.0,20.8,18.0,78,63,50,30.07,29.95,6,1,7,0.00
2013-10-30,51.6,40.8,33.0,30.0,26.5,22.0,72,58,36,30.14,30.06,8,1,9,0.00
2013-10-31,54.6,46.2,41.3,45.0,38.4,29.0,94,75,61,30.20,30.11,8,2,14,0.00
2013-11-1,57.3,46.4,36.8,40.0,37.2,34.0,93,72,50,30.21,29.89,7,1,12,0.00
2013-11-2,49.3,40.2,29.7,40.0,31.6,25.0,92,72,56,29.98,29.67,20,6,30,0.02
2013-11-3,36.9,32.3,27.8,28.0,26.2,22.0,93,78,58,30.11,29.96,10,2,15,0.01
2013-11-4,39.1,34.8,30.7,33.0,29.8,27.0,87,82,70,30.17,30.08,7,1,12,0.00
2013-11-5,45.2,40.2,34.1,40.0,36.4,30.0,91,86,79,30.21,30.11,8,3,14,0.09
2013-11-6,53.7,46.7,42.1,45.0,42.1,38.0,92,84,67,30.26,30.06,7,2,11,0.05
2013-11-7,49.7,42.3,35.5,45.0,36.4,27.0,91,79,70,30.06,29.81,16,5,25,0.16
2013-11-8,40.8,36.9,33.3,32.0,29.1,27.0,81,73,60,30.15,30.05,6,2,13,0.00
2013-11-9,48.5,40.8,32.6,37.0,31.3,26.0,88,70,54,30.10,30.03,4,0,9,0.00
2013-11-10,57.9,47.9,38.0,40.0,35.9,33.0,88,65,44,30.08,30.02,5,0,8,0.00
2013-11-11,37.9,34.6,29.6,36.0,33.4,28.0,96,95,89,30.23,30.07,2,0,6,0.00
2013-11-12,56.4,45.8,33.1,44.0,36.7,-99.9,96,74,53,30.34,30.21,9,-9,16,0.04
2013-11-13,51.4,43.4,37.5,41.0,34.1,26.0,91,71,47,30.38,30.18,3,0,8,0.00
2013-11-14,40.6,36.1,30.0,31.0,27.4,24.0,88,72,55,30.18,30.00,10,1,14,0.00
2013-11-15,36.4,32.3,26.9,28.0,26.1,24.0,92,78,62,30.00,29.58,16,3,26,0.00
2013-11-16,38.8,35.7,33.4,30.0,28.1,26.0,86,74,63,29.81,29.49,15,6,27,0.00
2013-11-17,46.0,37.3,32.4,30.0,28.1,27.0,80,70,50,30.00,29.81,9,3,17,0.00
2013-11-18,46.3,42.6,38.0,35.0,30.3,27.0,81,62,53,29.98,29.74,21,6,25,0.01
2013-11-19,45.7,42.3,38.1,40.0,37.2,34.0,92,82,72,29.78,29.70,20,6,28,0.04
2013-11-20,37.6,26.2,15.2,36.0,15.8,-1.0,92,66,46,30.40,29.79,9,1,11,0.00
2013-11-21,28.2,18.8,12.1,9.0,4.6,-1.0,64,55,43,30.77,30.40,6,1,8,0.00
2013-11-22,32.5,22.2,17.1,15.0,9.7,5.0,73,59,47,30.76,30.65,5,1,7,0.00
2013-11-23,35.1,24.3,15.8,19.0,14.2,10.0,78,66,49,30.64,30.37,4,0,6,0.00
2013-11-24,55.5,40.0,25.2,21.0,15.8,9.0,68,40,16,30.37,30.23,7,1,12,0.00
2013-11-25,51.3,36.7,29.7,24.0,19.2,15.0,63,50,25,30.34,30.27,5,0,12,0.00
2013-11-26,52.8,39.6,28.3,25.0,19.5,17.0,67,46,26,30.29,30.11,5,1,11,0.00
2013-11-27,41.8,34.9,28.2,27.0,22.7,20.0,79,62,46,30.11,29.99,2,0,5,0.00
2013-11-28,51.4,38.1,27.1,29.0,25.2,21.0,82,62,42,30.18,30.08,8,1,10,0.00
2013-11-29,52.5,44.7,38.3,30.0,26.1,22.0,60,49,34,30.23,30.16,6,1,9,0.00
2013-11-30,51.1,43.4,37.5,36.0,31.0,24.0,83,63,48,30.29,30.18,8,1,10,0.01
2013-12-1,52.3,47.5,43.1,41.0,37.4,31.0,77,68,63,30.18,29.84,22,8,32,0.00
2013-12-2,43.9,32.2,23.4,37.0,27.4,18.0,93,82,62,29.92,29.72,13,4,20,0.38
2013-12-3,23.8,17.1,7.8,19.0,12.4,3.0,92,82,68,30.27,29.92,13,2,16,0.00
2013-12-4,15.3,8.9,3.7,6.0,2.5,-1.0,82,75,67,30.41,30.27,6,1,10,0.00
2013-12-5,22.0,10.2,3.6,9.0,3.7,0.0,89,76,43,30.40,30.26,7,1,11,0.00
2013-12-6,9.4,6.7,4.7,6.0,3.6,1.0,89,87,85,30.27,30.07,3,0,4,0.00
2013-12-7,4.5,-1.2,-5.6,1.0,-5.7,-10.0,86,81,74,30.56,30.13,6,0,7,0.00
2013-12-8,20.6,9.2,-4.3,7.0,-1.4,-9.0,80,64,34,30.69,30.55,5,2,10,0.00
2013-12-9,32.9,22.3,9.6,13.0,6.3,-1.0,66,51,38,30.68,30.46,12,3,14,0.00
2013-12-10,34.7,28.6,21.5,23.0,18.1,13.0,83,66,47,30.46,30.38,5,1,6,0.00
2013-12-11,41.1,32.9,25.8,23.0,21.6,20.0,80,64,48,30.39,30.26,7,3,17,0.00
2013-12-12,40.1,34.6,26.9,26.0,20.2,18.0,69,56,42,30.27,30.12,9,4,18,0.00
2013-12-13,43.9,36.9,31.3,33.0,29.7,26.0,83,76,64,30.42,30.20,6,2,11,0.00
2013-12-14,48.8,42.0,36.5,30.0,26.8,22.0,76,56,38,30.42,30.36,10,4,18,0.00
2013-12-15,51.2,45.7,40.4,40.0,26.9,16.0,75,51,29,30.37,30.27,9,3,14,0.00
2013-12-16,55.8,46.3,40.5,32.0,24.2,15.0,67,44,26,30.36,30.23,6,2,12,0.00
2013-12-17,59.1,49.5,43.4,28.0,20.6,17.0,55,33,24,30.23,29.99,7,3,15,0.00
2013-12-18,43.9,36.2,27.0,31.0,27.2,24.0,92,72,47,29.98,29.83,5,1,12,0.00
2013-12-19,26.5,21.8,17.6,23.0,12.0,7.0,88,67,54,30.26,29.96,7,1,13,0.00
2013-12-20,40.7,31.0,20.1,35.0,22.1,2.0,86,72,32,30.20,29.87,10,4,19,0.06
2013-12-21,43.3,37.8,35.2,34.0,32.3,30.0,85,80,66,30.14,29.88,10,2,12,0.00
2013-12-22,46.9,41.0,37.3,37.0,33.6,31.0,83,75,62,30.30,30.13,7,1,9,0.00
2013-12-23,49.1,42.5,32.5,39.0,31.0,24.0,89,65,43,30.41,30.21,13,4,23,0.00
2013-12-24,45.3,35.5,27.4,29.0,23.1,16.0,89,64,31,30.52,30.41,7,2,12,0.00
2013-12-25,50.9,44.3,39.0,22.0,16.6,12.0,44,33,26,30.48,30.30,9,3,15,0.00
2013-12-26,58.8,49.0,43.9,30.0,22.8,15.0,47,36,27,30.30,30.16,10,3,13,0.00
2013-12-27,49.6,44.2,36.7,24.0,20.5,17.0,60,40,32,30.21,30.06,10,2,14,0.00
2013-12-28,42.1,34.8,29.9,27.0,23.2,19.0,74,63,44,30.44,30.21,3,0,6,0.00
2013-12-29,47.4,38.0,29.4,26.0,20.1,14.0,69,50,31,30.42,30.25,9,2,13,0.00
2013-12-30,48.0,44.2,41.0,32.0,26.3,18.0,66,50,34,30.26,30.11,7,2,12,0.00
2013-12-31,46.9,42.9,38.8,30.0,23.3,18.0,65,47,34,30.27,30.14,7,1,11,0.00
2014-1-1,50.3,41.2,35.3,33.0,28.6,24.0,70,61,49,30.32,30.24,5,1,10,0.00
2014-1-2,54.7,46.3,39.2,31.0,29.1,23.0,66,52,37,30.25,29.93,8,3,15,0.00